• în România
  • Lista ţărilor
  • Pe 7 zile
  • Temperatura apei
  • Hartă satelitară
  • Meteo pe hartă
  • Widget-uri
  • user-avatar
    Intrare

    Meteo pe oră la Dobroe

    Astăzi, 19 Iulie, Joi

    Timp Temperatura Precipitaţii Vânt Presiune Umiditate
    00:00 +19°C° 0 mm 3 m/s 737 mmHg 97%
    01:00 +19°C° 0 mm 3 m/s 737 mmHg 97%
    02:00 +19°C° 0 mm 2 m/s 737 mmHg 97%
    03:00 +20°C° 0,1 mm 3 m/s 737 mmHg 96%
    04:00 +20°C° 0,1 mm 3 m/s 737 mmHg 96%
    05:00 +20°C° 0,1 mm 4 m/s 737 mmHg 96%
    06:00 +20°C° 0,2 mm 4 m/s 737 mmHg 94%
    07:00 +20°C° 0,2 mm 4 m/s 737 mmHg 93%
    08:00 +21°C° 0 mm 4 m/s 737 mmHg 92%
    09:00 +21°C° 0,2 mm 5 m/s 737 mmHg 90%
    10:00 +21°C° 0,2 mm 5 m/s 737 mmHg 88%
    11:00 +22°C° 0,2 mm 5 m/s 737 mmHg 86%
    12:00 +22°C° 0,2 mm 5 m/s 737 mmHg 85%
    13:00 +22°C° 0,2 mm 5 m/s 737 mmHg 84%
    14:00 +23°C° 0,2 mm 5 m/s 737 mmHg 83%
    15:00 +23°C° 0,2 mm 5 m/s 737 mmHg 83%
    16:00 +23°C° 0,2 mm 4 m/s 737 mmHg 84%
    17:00 +23°C° 0,2 mm 4 m/s 737 mmHg 84%
    18:00 +22°C° 0,2 mm 3 m/s 737 mmHg 88%
    19:00 +21°C° 0,2 mm 3 m/s 737 mmHg 92%
    20:00 +20°C° 0,2 mm 2 m/s 737 mmHg 96%
    21:00 +20°C° 0 mm 2 m/s 737 mmHg 96%
    22:00 +19°C° 0 mm 2 m/s 737 mmHg 97%
    23:00 +19°C° 0 mm 2 m/s 737 mmHg 98%

    Mâine, 20 Iulie, Vineri

    Timp Temperatura Precipitaţii Vânt Presiune Umiditate
    00:00 +19°C° 0 mm 2 m/s 737 mmHg 98%
    01:00 +19°C° 0 mm 2 m/s 737 mmHg 98%
    02:00 +19°C° 0 mm 2 m/s 737 mmHg 98%
    03:00 +20°C° 0 mm 1 m/s 737 mmHg 98%
    04:00 +20°C° 0 mm 1 m/s 737 mmHg 98%
    05:00 +21°C° 0 mm 1 m/s 737 mmHg 98%
    06:00 +21°C° 0 mm 1 m/s 738 mmHg 96%
    07:00 +22°C° 0 mm 1 m/s 738 mmHg 94%
    08:00 +22°C° 0 mm 1 m/s 738 mmHg 92%
    09:00 +24°C° 0,1 mm 1 m/s 738 mmHg 88%
    10:00 +25°C° 0,1 mm 1 m/s 738 mmHg 83%
    11:00 +26°C° 0,1 mm 1 m/s 738 mmHg 78%
    12:00 +26°C° 0,2 mm 1 m/s 738 mmHg 75%
    13:00 +27°C° 0,2 mm 1 m/s 738 mmHg 72%
    14:00 +28°C° 0,2 mm 1 m/s 738 mmHg 70%
    15:00 +28°C° 0,4 mm 2 m/s 738 mmHg 73%
    16:00 +27°C° 0,4 mm 2 m/s 738 mmHg 76%
    17:00 +27°C° 0,4 mm 2 m/s 738 mmHg 79%
    18:00 +26°C° 0,3 mm 2 m/s 738 mmHg 83%
    19:00 +24°C° 0,3 mm 2 m/s 738 mmHg 88%
    20:00 +23°C° 0,3 mm 2 m/s 739 mmHg 92%
    21:00 +23°C° 0,1 mm 1 m/s 739 mmHg 93%
    22:00 +22°C° 0,1 mm 1 m/s 739 mmHg 94%
    23:00 +21°C° 0,1 mm 1 m/s 739 mmHg 94%

    Poimâine, 21 Iulie, Sâmbătă

    Timp Temperatura Precipitaţii Vânt Presiune Umiditate
    00:00 +21°C° 0 mm 1 m/s 739 mmHg 95%
    01:00 +21°C° 0 mm 1 m/s 739 mmHg 95%
    02:00 +21°C° 0 mm 1 m/s 739 mmHg 95%
    03:00 +21°C° 0 mm 1 m/s 740 mmHg 95%
    04:00 +20°C° 0 mm 2 m/s 740 mmHg 95%
    05:00 +20°C° 0 mm 2 m/s 740 mmHg 95%
    06:00 +23°C° 0,1 mm 2 m/s 740 mmHg 91%
    07:00 +24°C° 0,1 mm 2 m/s 740 mmHg 87%
    08:00 +25°C° 0,1 mm 2 m/s 740 mmHg 83%
    09:00 +26°C° 0,6 mm 2 m/s 740 mmHg 79%
    10:00 +27°C° 0,6 mm 2 m/s 740 mmHg 75%
    11:00 +28°C° 0,6 mm 2 m/s 740 mmHg 70%
    12:00 +29°C° 0,4 mm 2 m/s 740 mmHg 68%
    13:00 +29°C° 0,4 mm 2 m/s 740 mmHg 67%
    14:00 +29°C° 0,4 mm 1 m/s 740 mmHg 65%
    15:00 +29°C° 0,5 mm 2 m/s 740 mmHg 68%
    16:00 +29°C° 0,5 mm 2 m/s 740 mmHg 72%
    17:00 +28°C° 0,5 mm 2 m/s 740 mmHg 75%
    18:00 +27°C° 0,3 mm 2 m/s 740 mmHg 80%
    19:00 +25°C° 0,3 mm 2 m/s 740 mmHg 85%
    20:00 +24°C° 0,3 mm 2 m/s 740 mmHg 90%
    21:00 +23°C° 0,3 mm 2 m/s 740 mmHg 92%
    22:00 +21°C° 0,3 mm 2 m/s 740 mmHg 93%
    23:00 +21°C° 0,3 mm 2 m/s 740 mmHg 94%

    22 Iulie, Duminică

    Timp Temperatura Precipitaţii Vânt Presiune Umiditate
    00:00 +21°C° 0,5 mm 2 m/s 740 mmHg 95%
    01:00 +20°C° 0,5 mm 2 m/s 740 mmHg 95%
    02:00 +20°C° 0,5 mm 2 m/s 740 mmHg 96%
    03:00 +20°C° 0,1 mm 2 m/s 740 mmHg 96%
    04:00 +20°C° 0,1 mm 2 m/s 740 mmHg 96%
    05:00 +20°C° 0,1 mm 2 m/s 740 mmHg 96%
    06:00 +23°C° 0,1 mm 2 m/s 740 mmHg 93%
    07:00 +24°C° 0,1 mm 2 m/s 740 mmHg 89%
    08:00 +25°C° 0,1 mm 3 m/s 740 mmHg 86%
    09:00 +26°C° 1 mm 3 m/s 740 mmHg 82%
    10:00 +27°C° 1 mm 3 m/s 740 mmHg 79%
    11:00 +28°C° 1 mm 3 m/s 740 mmHg 75%
    12:00 +28°C° 0,6 mm 2 m/s 739 mmHg 72%
    13:00 +29°C° 0,6 mm 2 m/s 739 mmHg 69%
    14:00 +30°C° 0,6 mm 2 m/s 739 mmHg 67%
    15:00 +29°C° 0,2 mm 2 m/s 739 mmHg 69%
    16:00 +29°C° 0,2 mm 2 m/s 739 mmHg 72%
    17:00 +29°C° 0,2 mm 2 m/s 739 mmHg 74%
    18:00 +27°C° 0,1 mm 2 m/s 739 mmHg 80%
    19:00 +26°C° 0,1 mm 2 m/s 739 mmHg 85%
    20:00 +24°C° 0,1 mm 2 m/s 739 mmHg 90%
    21:00 +24°C° 0,4 mm 2 m/s 739 mmHg 92%
    22:00 +23°C° 0,4 mm 2 m/s 739 mmHg 93%
    23:00 +23°C° 0,4 mm 2 m/s 739 mmHg 95%

    23 Iulie, Luni

    Timp Temperatura Precipitaţii Vânt Presiune Umiditate
    00:00 +21°C° 0,5 mm 2 m/s 739 mmHg 95%
    01:00 +21°C° 0,5 mm 2 m/s 739 mmHg 96%
    02:00 +21°C° 0,5 mm 2 m/s 739 mmHg 96%
    03:00 +21°C° 0 mm 2 m/s 739 mmHg 97%
    04:00 +21°C° 0 mm 2 m/s 739 mmHg 97%
    05:00 +21°C° 0 mm 2 m/s 739 mmHg 97%
    06:00 +23°C° 0 mm 2 m/s 739 mmHg 94%
    07:00 +24°C° 0 mm 3 m/s 740 mmHg 91%
    08:00 +25°C° 0 mm 3 m/s 740 mmHg 88%
    09:00 +26°C° 0,5 mm 3 m/s 740 mmHg 85%
    10:00 +27°C° 0,5 mm 3 m/s 740 mmHg 82%
    11:00 +27°C° 0,5 mm 4 m/s 740 mmHg 79%
    12:00 +27°C° 1 mm 3 m/s 740 mmHg 80%
    13:00 +27°C° 1 mm 3 m/s 740 mmHg 81%
    14:00 +26°C° 1 mm 3 m/s 740 mmHg 82%
    15:00 +26°C° 0,1 mm 2 m/s 740 mmHg 83%
    16:00 +26°C° 0,1 mm 2 m/s 740 mmHg 84%
    17:00 +26°C° 0,1 mm 2 m/s 740 mmHg 84%
    18:00 +25°C° 0,1 mm 2 m/s 740 mmHg 87%
    19:00 +24°C° 0,1 mm 2 m/s 740 mmHg 89%
    20:00 +23°C° 0,1 mm 2 m/s 741 mmHg 91%
    21:00 +21°C° 0 mm 2 m/s 741 mmHg 91%
    22:00 +21°C° 0 mm 2 m/s 741 mmHg 92%
    23:00 +20°C° 0 mm 2 m/s 741 mmHg 93%

    24 Iulie, Marţi

    Timp Temperatura Precipitaţii Vânt Presiune Umiditate
    00:00 +20°C° 0 mm 2 m/s 741 mmHg 93%
    01:00 +20°C° 0 mm 2 m/s 741 mmHg 94%
    02:00 +20°C° 0 mm 2 m/s 741 mmHg 94%
    03:00 +20°C° 0 mm 2 m/s 742 mmHg 94%
    04:00 +20°C° 0 mm 2 m/s 742 mmHg 95%
    05:00 +20°C° 0 mm 2 m/s 742 mmHg 95%
    06:00 +21°C° 0 mm 3 m/s 742 mmHg 91%
    07:00 +24°C° 0 mm 3 m/s 743 mmHg 87%
    08:00 +25°C° 0 mm 3 m/s 743 mmHg 83%
    09:00 +26°C° 0 mm 4 m/s 743 mmHg 79%
    10:00 +27°C° 0 mm 4 m/s 743 mmHg 75%
    11:00 +28°C° 0 mm 4 m/s 743 mmHg 71%
    12:00 +28°C° 0,2 mm 3 m/s 743 mmHg 70%
    13:00 +29°C° 0,2 mm 3 m/s 743 mmHg 69%
    14:00 +29°C° 0,2 mm 3 m/s 743 mmHg 68%
    15:00 +29°C° 0,4 mm 3 m/s 743 mmHg 70%
    16:00 +28°C° 0,4 mm 3 m/s 743 mmHg 73%
    17:00 +28°C° 0,4 mm 2 m/s 743 mmHg 75%
    18:00 +27°C° 0,2 mm 2 m/s 744 mmHg 80%
    19:00 +25°C° 0,2 mm 2 m/s 744 mmHg 84%
    20:00 +23°C° 0,2 mm 2 m/s 744 mmHg 89%
    21:00 +23°C° 0 mm 1 m/s 744 mmHg 90%
    22:00 +22°C° 0 mm 1 m/s 744 mmHg 91%
    23:00 +22°C° 0 mm 1 m/s 745 mmHg 93%
    Arată mai mult